This is the latest recevied weather packets stored in our database for station/object DL9LAF-4. If no packets are shown the sender has not sent any weather packets the latest 10 day(s).
| Time | Temp. | Humidity | Pressure | Rain* | Wind** | Luminosity | Snow |
|---|---|---|---|---|---|---|---|
| 1777643153 | 23.33° C | 40% | 1003.4 hPa | 0 mm | - | - | - |
| 1777642553 | 23.33° C | 60% | 1003.7 hPa | 0 mm | - | - | - |
| 1777641953 | 22.78° C | 42% | 1003.7 hPa | 0 mm | - | - | - |
| 1777641353 | 22.78° C | 41% | 1004 hPa | 0 mm | - | - | - |
| 1777640753 | 22.78° C | 41% | 1004 hPa | 0 mm | - | - | - |
| 1777640154 | 22.22° C | 41% | 1004.4 hPa | 0 mm | - | - | - |
| 1777639553 | 22.22° C | 42% | 1004.5 hPa | 0 mm | - | - | - |
| 1777638953 | 22.22° C | 43% | 1004.7 hPa | 0 mm | - | - | - |
| 1777638353 | 21.67° C | 43% | 1004.7 hPa | 0 mm | - | - | - |
| 1777637753 | 21.67° C | 44% | 1005 hPa | 0 mm | - | - | - |
| 1777637153 | 21.67° C | 43% | 1005 hPa | 0 mm | - | - | - |
| 1777636553 | 21.11° C | 44% | 1005.2 hPa | 0 mm | - | - | - |
| 1777635953 | 21.11° C | 44% | 1005.4 hPa | 0 mm | - | - | - |
| 1777635353 | 21.11° C | 45% | 1005.2 hPa | 0 mm | - | - | - |
| 1777634753 | 20.56° C | 46% | 1005.4 hPa | 0 mm | - | - | - |
| 1777634154 | 20.56° C | 45% | 1005.5 hPa | 0 mm | - | - | - |
| 1777633554 | 20° C | 47% | 1005.5 hPa | 0 mm | - | - | - |
| 1777632953 | 19.44° C | 47% | 1005.7 hPa | 0 mm | - | - | - |
| 1777632354 | 19.44° C | 48% | 1005.9 hPa | 0 mm | - | - | - |
| 1777631753 | 19.44° C | 49% | 1006 hPa | 0 mm | - | - | - |
| 1777631153 | 19.44° C | 50% | 1006 hPa | 0 mm | - | - | - |
| 1777630553 | 18.89° C | 50% | 1006 hPa | 0 mm | - | - | - |
| 1777629953 | 18.89° C | 51% | 1006.2 hPa | 0 mm | - | - | - |
| 1777629353 | 18.33° C | 52% | 1006.4 hPa | 0 mm | - | - | - |
| 1777628753 | 18.33° C | 53% | 1006.5 hPa | 0 mm | - | - | - |
* Rain latest hour (hover to see other rain measurements)
** Current wind speed in m/s (hover to see current wind gust speed)